Weather History for Monte Cimone, Italy

Change the Weather History Date:

Friday, August 2, 2013

  Actual Average Record
Temperature  
Mean Temperature 60 °F -  
Max Temperature 65 °F 55 °F 75 °F (1998)
Min Temperature 54 °F 46 °F 44 °F (1997)
Degree Days  
Heating Degree Days 6    
Growing Degree Days 10 (Base 50)    
Moisture  
Dew Point 38 °F    
Average Humidity 44    
Maximum Humidity 68    
Minimum Humidity 15    
Precipitation  
Precipitation 0.00 in 0.10 in - ()
Sea Level Pressure  
Sea Level Pressure 30.44 in    
Wind  
Wind Speed 15 mph ()    
Max Wind Speed 29 mph    
Max Gust Speed -    
Visibility 19.0 miles    
Events      
Averages and records for this station are not official NWS values.
T = Trace of Precipitation, MM = Missing Value Source: Averaged Metar Reports

Daily Weather History Graph

Daily Weather History Graph

Search for Another Location

Airport:

Trip Planner

Search our weather history database for the weather conditions in past years. The results will help you decide how hot, cold, wet, or windy it might be!

Date:

Astronomy

Aug. 02, 2013 Rise Set
Actual Time 6:05 AM CEST 8:40 PM CEST
Civil Twilight 5:32 AM CEST 9:13 PM CEST
Nautical Twilight 4:51 AM CEST 9:54 PM CEST
Astronomical Twilight 4:04 AM CEST 10:41 PM CEST
Moon 2:12 AM CEST (8/2) 5:26 PM CEST (8/2)
Length of Visible Light 15h 40m
Length of Day
14h 34m
Waning Crescent, 17% of the Moon is Illuminated
Aug 2
Waning Crescent
Aug 6
New
Aug 14
First Quarter
Aug 21
Full
Aug 28
Last Quarter

Hourly Weather History & Observations

Time (CEST) Temp. Dew Point Humidity Pressure Visibility Wind Dir Wind Speed Gust Speed Precip Events Conditions
12:55 AM 55.4 °F 21.2 °F 26% 30.42 in - NE 23.0 mph - N/A   Clear
1:55 AM 55.4 °F 21.2 °F 26% 30.42 in - ENE 28.8 mph - N/A   Clear
2:00 AM 55 °F 21 °F 15%  in 19 mi ENE 28.8 mph - -  
2:55 AM 55.4 °F 33.8 °F 44% 30.39 in - ENE 26.5 mph - N/A   Clear
3:55 AM 53.6 °F 41.0 °F 62% 30.39 in - NE 23.0 mph - N/A   Clear
4:55 AM 53.6 °F 41.0 °F 62% 30.39 in - ENE 25.3 mph - N/A   Clear
5:55 AM 53.6 °F 33.8 °F 47% 30.39 in - NE 12.7 mph - N/A   Clear
6:55 AM 55.4 °F 26.6 °F 33% 30.42 in - NE 16.1 mph - N/A   Clear
7:55 AM 55.4 °F 28.4 °F 36% 30.42 in - NE 16.1 mph - N/A   Clear
8:00 AM 56 °F 29 °F 23%  in 19 mi NE 16.1 mph - -  
8:55 AM 57.2 °F 32.0 °F 38% 30.42 in - ENE 17.3 mph - N/A   Clear
9:55 AM 57.2 °F 33.8 °F 41% 30.42 in - NE 20.7 mph - N/A   Clear
10:55 AM 59.0 °F 37.4 °F 45% 30.45 in - NE 17.3 mph - N/A   Clear
11:55 AM 60.8 °F 37.4 °F 42% 30.45 in - ESE 12.7 mph - N/A   Clear
12:55 PM 62.6 °F 41.0 °F 45% 30.45 in - SSE 13.8 mph - N/A   Clear
1:55 PM 62.6 °F 42.8 °F 48% 30.45 in - South 10.4 mph - N/A   Clear
2:00 PM 63 °F 43 °F 37%  in 19 mi South 10.4 mph - -  
2:55 PM 64.4 °F 44.6 °F 49% 30.45 in - South 8.1 mph - N/A   Clear
3:55 PM 66.2 °F 44.6 °F 46% 30.45 in - South 9.2 mph - N/A   Clear
4:55 PM 66.2 °F 44.6 °F 46% 30.45 in - SSE 5.8 mph - N/A   Clear
5:55 PM 64.4 °F 44.6 °F 49% 30.45 in - Calm Calm - N/A   Clear
6:55 PM 62.6 °F 46.4 °F 55% 30.45 in - Calm Calm - N/A   Clear
7:55 PM 60.8 °F 48.2 °F 63% 30.45 in - Calm Calm - N/A   Clear
8:00 PM 61 °F 48 °F 52%  in 19 mi Calm Calm - -  
8:55 PM 60.8 °F 50.0 °F 68% 30.45 in - Calm Calm - N/A   Clear
9:55 PM 60.8 °F 32.0 °F 34% 30.48 in - Calm Calm - N/A   Clear
10:55 PM 60.8 °F 41.0 °F 48% 30.48 in - North 8.1 mph - N/A   Clear
11:55 PM 59.0 °F 42.8 °F 55% 30.48 in - Calm Calm - N/A   Clear